User: anonymous   Login
Location: Albany
(35.0000°S, 118.0000°E)
Time: 00:32:27
(UTC-04:00)
Language:

Cosmos 2227 Rocket - Orbit

View from above orbital plane
View from above orbital plane
View from above satellite
View from above satellite

Ground track
Ground track

The orbit data is extracted from the following two-line orbital elements,

1 22285U 92093B   16182.47005746  .00000049  00000-0  50008-4 0  9993
2 22285  71.0201 230.0894 0006113 291.7160  68.3312 14.14993386212786
Epoch (UTC): 30 June 2016 11:16:52
Eccentricity: 0.0006113
inclination: 71.0201°
perigee height: 838 km
apogee height: 847 km
right ascension of ascending node: 230.0894°
argument of perigee: 291.7160°
revolutions per day: 14.14993386
mean anomaly at epoch: 68.3312°
orbit number at epoch: 21278

The dashed part of the orbit path shows where the satellite is in the earth's shadow,  

DLR